Miscellaneous Local Product
Issued by NWS North Platte, NE

Home | Current Version | Previous Version | Graphics & Text | Print | Product List | Glossary On
Versions: 1 2 3 4 5 6 7 8 9 10 11 12 13 14 15 16 17 18 19 20 21 22 23 24 25 26 27 28 29 30 31 32 33 34 35 36 37 38 39 40 41 42 43 44 45 46 47 48 49 50
000
AXUS43 KLBF 262210
MISLBF


WESTERN AND NORTH CENTRAL NEBRASKA HOURLY WEATHER ROUNDUP
NATIONAL WEATHER SERVICE NORTH PLATTE NE
500 PM CDT SUN MAR 26 2017

NOTE: "FAIR" INDICATES FEW OR NO CLOUDS BELOW 12,000 FEET WITH NO
SIGNIFICANT WEATHER AND/OR OBSTRUCTIONS TO VISIBILITY.

NOTE: STATIONS NOT REPORTING VARIABLES SUCH AS SKY/WEATHER OR
PRESSURE ARE PROVIDED BY RAWS AND APRS NETWORKS AND ARE NOT UNDER
NATIONAL WEATHER SERVICE QUALITY CONTROL.

...OBSERVATIONS IN AND NEAR THE EASTERN PANHANDLE OF NEBRASKA...

CITY           SKY/WX    TMP DP  RH WIND       PRES   REMARKS
PINE RIDGE     PTSUNNY   50  40  68 N12       29.92R
CHADRON        CLOUDY    50  39  66 N8        29.93S
ALLIANCE       CLOUDY    55  35  47 NE9       29.88R
SIDNEY         PTSUNNY   55  37  50 N10       29.90R
CRESCENT LAKE    N/A     55  34  45 CALM        N/A
$$

...OBSERVATIONS IN NORTHERN NEBRASKA AND FAR SOUTHERN SOUTH DAKOTA...

CITY           SKY/WX    TMP DP  RH WIND       PRES   REMARKS
WINNER         PTSUNNY   49  39  68 VRB5      29.91F
VALENTINE      MOSUNNY   54  37  52 N7        29.88S
THEDFORD       CLOUDY    62  37  39 E5        29.85S
AINSWORTH      CLOUDY    53  39  60 NE5       29.88S
O`NEILL        CLOUDY    47  42  83 N6        29.91S
ORD            PTSUNNY   53  42  66 E6        29.87S
BROKEN BOW     SUNNY     57  39  51 NE7       29.84F
VALENTINE NWR    N/A     57  40  53 NE6         N/A
HALSEY           N/A     59  39  47 E3          N/A
BUTTE            N/A     44  40  86 NE5G12      N/A
CHAMBERS         N/A     53  42  66 N3          N/A
EWING            N/A     46  43  88 E3          N/A
$$

...OBSERVATIONS IN SOUTHWEST NEBRASKA AND FAR NORTHEAST COLORADO...

CITY           SKY/WX    TMP DP  RH WIND       PRES   REMARKS
HOLYOKE        FAIR      59  37  44 N8        29.88S
IMPERIAL       CLOUDY    57  39  51 N7        29.85S
OGALLALA       CLOUDY    59  37  44 NW12      29.87R
NORTH PLATTE   MOSUNNY   60  40  47 W6        29.85S
MCCOOK         CLOUDY    53  41  63 CALM      29.86S
LEXINGTON      SUNNY     55  42  62 CALM      29.85S
STAPLETON        N/A     54  43  66 CALM        N/A
GOTHENBURG       N/A     53  39  60 E5          N/A
CALLAWAY         N/A     55  41  60 NE7         N/A
$$

...OBSERVATIONS IN CENTRAL LINCOLN COUNTY AREA...

CITY           SKY/WX    TMP DP  RH WIND       PRES   REMARKS
N.P. AIRPORT   MOSUNNY   60  40  47 W6        29.85S
N.P. DOWNTOWN    N/A     58  42  55 CALM        N/A
N.P. SOUTHEAST   N/A     58  39  49 CALM        N/A
N.P. HILLCREST   N/A     60  41  50 W3          N/A
$$

...SOME OBSERVATIONS FROM AROUND THE REGION...

CITY           SKY/WX    TMP DP  RH WIND       PRES   REMARKS
DENVER         CLOUDY    51  33  50 NE8       29.92R
LIMON          CLOUDY    48  37  65 NE12      29.91R
ASPEN          CLOUDY    49  24  37 N8G16     29.95F
LARAMIE        LGT RAIN  43  29  57 N13G20    29.93F
CASPER         MOSUNNY   49  33  54 CALM      29.92F
CHEYENNE       PTSUNNY   46  34  62 N18G25    29.92S
SCOTTSBLUFF    CLOUDY    52  36  54 NW13      29.92R
GRAND ISLAND   CLOUDY    50  45  83 NE8       29.88F
OMAHA          CLOUDY    50  41  71 N9        29.90S
SIOUX FALLS    CLOUDY    48  39  71 N8        29.92S
PIERRE         CLOUDY    45  38  76 NW6       29.93S
RAPID CITY     LGT RAIN  42  39  89 N7        29.94S
BISMARCK       SUNNY     61  37  41 NE6       29.89F
KANSAS CITY    CLOUDY    50  44  80 N3        29.89F
HILL CITY      CLOUDY    46  44  93 NE10      29.86R
WICHITA        CLOUDY    57  54  89 E9        29.78S
DODGE CITY     PTSUNNY   51  42  71 NE18      29.78F
OKLAHOMA CITY  PTSUNNY   76  57  51 S14G22    29.70F
DALLAS         CLOUDY    82  61  48 S15       29.73F
AMARILLO       MOSUNNY   73  33  23 W20G31    29.74R
$$




USA.gov is the U.S. government's official web portal to all federal, state and local government web resources and services.